Location: Hemaruka
(51.7801°N, 111.0917°W)
Time: 14:23:22
(UTC+00:00)

Tiangong - Pass Details

Date: 06 June 2023
Orbit: 373 x 384 km, 41.5° (Epoch: 28 September)

Event Time Altitude Azimuth Distance (km) Brightness Sun altitude
Exits shadow 09:57:01 - 188° (S) 1,442 0.2 -8.3°
Reaches altitude 10° 09:57:25 10° 181° (S) 1,393 0.2 -8.3°
Maximum altitude 09:58:11 11° 167° (SSE) 1,357 0.3 -8.2°
Drops below altitude 10° 09:58:57 10° 153° (SSE) 1,398 0.4 -8.1°
Sets 10:02:26 0° 112° (ESE) 2,266 2.0 -7.8°
